SCP
0 0 0 0 0 0 0 0 0 0 0 0 1 1 3 3 4 4 5 4 3 2 1 0 0 0 0 0 0 0 0 0 0 0 0 0 0 0
0 0 0 0 0 0 1 0 1 1 0 1 1 2 2 3 3 3 5 4 3 2 1 0 0 0 0 0 0 0 0 0 0 0 0 0 0 0
0 1 1 1 0 1 1 1 1 1 1 1 2 1 2 2 3 4 6 7 7 3 2 0 0 0 0 0 0 0 0 0 0 0 0 0 0 0
0 0 0 1 1 1 1 1 1 1 1 0 1 2 2 1 2 5 7 5 6 4 3 1 0 0 0 0 0 0 0 0 0 0 0 0 0 0
1 1 1 1 1 2 1 1 1 1 2 2 -0 1 2 3 3 3 5 6 6 3 1 0 0 0 0 0 0 0 0 0 0 0 0 0 0 0
1 2 1 2 2 2 2 2 2 2 2 2 2 2 2 1 2 2 1 1 2 3 0 0 0 0 0 0 0 0 0 0 0 0 0 0 0 0
1 1 1 1 1 1 2 2 3 3 3 2 2 2 2 2 2 2 2 2 2 4 1 0 0 0 0 0 0 0 0 0 0 0 0 0 0 0
1 1 1 1 1 1 1 1 2 3 3 3 3 3 3 3 3 3 3 3 2 4 2 1 1 0 0 0 0 0 0 0 0 0 0 0 0 0
2 2 2 2 1 2 2 1 1 1 1 3 3 3 2 2 3 4 3 3 2 2 1 0 0 1 0 0 0 0 0 0 0 0 0 0 0 0
2 2 2 3 3 2 2 2 2 3 2 2 1 1 2 2 3 3 3 3 2 2 0 1 1 0 0 0 0 0 0 0 0 0 0 0 0 0
2 2 2 1 1 1 1 1 2 2 2 2 1 0 0 0 0 0 1 1 1 2 0 0 0 0 0 0 0 0 0 0 0 0 0 0 0 0
1 1 1 1 1 0 0 1 1 1 2 2 2 2 2 2 1 0 1 1 1 1 0 0 0 0 0 0 0 0 0 0 0 0 0 0 0 0
1 1 1 0 0 0 0 0 1 1 1 2 2 2 2 2 2 1 2 1 2 2 0 0 0 0 0 0 0 0 0 0 0 0 0 0 0 0
0 -0 0 0 0 -0 0 0 0 0 0 1 1 1 1 1 0 2 1 0 0 1 0 0 0 0 0 0 0 0 0 0 0 0 0 0 0 0
0 0 0 0 0 -0 -0 0 0 0 1 1 1 1 1 0 1 0 0 0 0 0 0 0 0 0 0 0 0 0 0 0 0 0 0 0 0 0
0 0 0 0 -0 0 0 0 0 1 1 1 1 2 1 1 1 1 0 0 0 0 0 0 0 0 0 0 0 0 0 0 0 0 0 0 0 0
0 0 0 0 1 1 1 1 1 1 1 1 1 0 0 1 2 1 0 0 0 0 0 0 0 0 0 0 0 0 0 0 0 0 0 0 0 0
0 0 0 0 0 0 0 0 1 1 0 0 0 0 1 1 1 1 0 0 0 0 0 0 0 0 0 0 0 0 0 0 0 0 0 0 0 0
0 0 0 0 0 0 0 0 0 0 0 0 0 1 0 1 1 1 0 0 0 0 0 0 0 0 0 0 0 0 0 0 0 0 0 0 0 0
0 0 0 0 0 0 0 0 0 0 0 0 0 0 0 1 1 1 0 0 0 0 0 0 0 0 0 0 0 0 0 0 0 0 0 0 0 0
0 0 0 0 0 0 0 0 0 0 0 0 0 0 0 1 1 2 1 0 0 0 0 0 0 0 0 0 0 0 0 0 0 0 0 0 0 0
0 0 0 0 0 0 0 0 0 0 0 0 0 0 0 0 1 1 0 0 0 0 0 0 0 0 0 0 0 0 0 0 0 0 0 0 0 0
0 0 0 0 0 0 0 0 0 0 0 0 0 0 0 0 0 0 0 0 0 0 0 0 0 0 0 0 0 0 0 0 0 0 0 0 0 0
Wind_Speed_500mb
21 21 21 20 15 25 23 22 25 31 34 24 27 30 35 39 41 54 56 65 60 51 40 41 42 47 50 48 37 38 36 32 31 28 25 26 25 23
20 17 21 19 17 27 25 22 25 30 42 40 40 37 42 51 48 52 61 65 58 45 45 43 48 46 48 49 35 37 36 34 32 31 28 27 26 24
23 27 31 29 29 27 25 30 31 34 41 49 50 51 46 47 58 51 62 67 73 54 60 46 49 52 54 42 37 35 37 36 32 32 32 28 28 26
27 26 28 29 27 29 27 31 39 35 42 55 57 49 54 52 56 58 57 70 62 52 63 52 51 52 58 52 39 32 34 35 32 33 33 32 31 30
36 34 34 34 36 36 36 40 42 45 47 52 62 55 61 60 55 62 58 36 64 65 56 52 48 55 58 56 51 34 35 34 32 31 32 33 32 32
46 43 43 44 45 44 44 43 42 44 47 52 56 55 58 67 70 66 73 72 53 38 64 58 57 59 55 52 50 38 42 33 30 29 30 31 30 27
48 49 49 51 50 48 50 51 47 50 59 68 73 71 78 78 77 76 72 73 64 43 50 60 60 55 54 46 51 31 30 29 29 26 25 27 25 25
55 53 52 50 52 57 60 60 52 54 62 66 71 76 85 83 83 77 77 66 65 65 63 68 63 45 38 46 50 37 29 25 25 21 21 23 24 24
55 52 50 51 50 58 62 61 57 59 61 67 73 83 86 83 78 81 73 61 65 72 73 63 50 40 36 42 40 43 40 31 17 18 18 20 20 19
72 76 77 77 76 75 77 78 79 82 85 83 78 77 78 77 74 73 71 70 56 58 61 62 46 42 33 41 39 40 38 22 14 14 18 18 20 22
87 89 89 88 84 79 77 78 75 72 65 60 57 58 63 67 68 71 75 62 49 51 55 41 40 32 30 33 29 25 25 17 12 13 16 18 22 28
80 75 67 61 56 50 53 56 62 59 55 57 59 64 67 71 65 60 65 59 38 42 39 33 30 25 22 20 28 21 10 6 9 9 14 18 22 27
64 64 49 54 56 58 63 74 76 67 61 61 69 76 77 73 53 54 56 48 49 32 37 32 29 27 24 25 16 8 3 11 7 10 15 18 19 28
64 59 54 57 59 61 63 63 65 62 63 65 72 76 67 56 51 55 50 48 33 31 30 31 27 25 20 17 7 11 14 20 11 9 11 19 22 21
35 44 46 50 49 54 63 69 70 69 68 66 63 63 53 50 51 53 47 42 26 33 31 24 24 25 19 14 15 19 16 9 7 12 12 18 22 22
42 38 39 38 40 45 40 37 38 44 46 51 50 49 53 52 44 49 52 35 28 32 30 24 25 25 18 13 15 15 12 11 11 24 20 19 27 21
41 41 39 36 35 38 37 33 35 36 40 42 47 52 53 46 40 46 37 28 26 30 31 25 25 22 15 15 14 11 13 9 21 25 21 12 14 29
32 33 27 28 29 33 32 32 30 34 37 38 43 46 48 48 38 45 43 32 27 28 30 26 26 22 19 18 9 14 17 15 20 24 20 14 21 26
17 14 21 29 31 30 36 40 40 37 39 37 35 40 45 44 35 43 48 44 35 37 28 29 29 24 25 20 13 16 21 19 21 18 19 16 23 27
23 21 19 25 28 31 34 37 40 41 39 40 42 44 42 45 44 46 54 42 37 36 31 34 32 25 25 21 18 13 30 27 22 14 24 25 23 26
16 20 24 25 27 30 33 36 36 36 36 38 39 40 38 41 44 46 52 38 39 31 33 35 26 23 24 25 22 23 23 36 31 29 26 22 19 22
15 17 19 22 25 27 31 35 35 36 35 37 38 34 29 30 30 24 32 43 37 32 32 29 28 29 33 28 25 24 22 23 40 39 34 26 19 12
20 20 22 22 23 24 25 27 31 31 33 30 32 34 29 27 24 24 24 31 32 26 25 29 34 31 31 28 30 31 27 20 18 32 36 29 19 22
Wind_Direction_500mb
252 252 257 252 228 267 270 272 281 292 299 293 294 301 307 310 302 307 313 336 339 335 333 332 331 331 320 312 302 289 288 293 287 289 287 282 291 275
259 259 264 252 215 256 291 284 277 283 289 304 310 301 294 303 318 313 316 328 336 338 332 320 314 317 326 319 302 288 284 286 284 284 289 284 285 277
259 230 255 266 246 225 242 262 272 278 282 290 289 308 317 316 315 315 314 320 323 331 333 311 304 313 329 321 308 294 283 284 282 278 283 289 281 281
281 275 269 277 270 269 270 266 262 278 289 294 305 309 302 317 326 318 313 316 321 319 324 308 298 312 327 329 311 298 289 287 278 274 284 283 285 281
251 261 268 273 275 270 265 262 263 266 271 279 291 304 314 314 315 307 313 309 313 323 313 318 317 322 327 334 322 301 285 288 278 271 280 282 286 278
234 243 252 258 266 272 275 278 278 288 293 293 297 299 294 293 300 300 302 310 317 308 307 306 309 316 317 321 317 306 286 286 279 273 278 280 284 274
243 247 250 253 259 266 271 274 273 273 277 285 290 297 301 305 306 313 311 315 319 311 299 308 310 314 311 320 322 312 285 283 278 273 274 282 284 278
258 258 256 258 257 261 265 273 279 280 283 288 292 293 298 301 305 306 310 311 311 316 317 316 315 319 315 316 320 311 301 278 267 270 275 280 286 287
257 263 265 264 267 273 278 280 280 281 280 282 283 287 294 299 302 304 305 304 310 320 320 317 321 325 313 322 324 312 293 291 268 264 277 284 291 296
257 256 257 261 264 265 266 267 267 270 275 280 284 287 290 296 297 298 297 297 306 320 310 308 324 321 318 332 319 301 299 279 253 264 286 293 303 307
257 260 263 265 269 273 275 275 278 282 286 289 292 289 290 291 292 296 296 303 300 297 302 310 322 317 332 337 335 320 301 270 255 270 295 312 322 323
262 263 265 270 275 279 279 278 277 284 291 295 294 295 298 301 302 297 302 308 317 305 308 307 311 318 328 337 334 314 315 285 260 280 315 330 335 335
265 267 267 265 268 272 274 271 272 283 283 288 291 298 304 306 303 296 300 305 312 302 301 300 296 311 321 321 334 318 273 331 263 302 332 323 324 330
260 255 254 258 265 269 272 277 280 277 279 286 291 296 303 306 297 292 298 301 297 299 297 290 280 305 311 323 268 292 279 311 246 280 318 326 321 318
265 263 270 278 284 284 277 272 278 282 283 286 288 294 299 296 296 295 298 303 301 310 306 294 278 292 301 296 259 251 262 233 214 265 293 311 313 307
282 286 283 290 299 296 294 291 288 286 283 284 288 296 296 294 295 289 300 296 292 306 306 292 278 283 288 272 276 263 179 174 229 215 254 270 308 277
292 296 302 308 310 299 297 293 288 285 285 288 288 293 292 294 293 292 301 281 280 305 305 291 277 282 285 269 280 259 186 216 218 245 240 271 262 250
296 300 300 284 284 286 289 284 278 280 285 290 291 295 294 296 292 280 287 277 279 303 298 285 275 274 279 266 265 212 190 207 249 231 260 249 258 264
328 305 291 291 294 298 296 294 291 292 290 289 288 293 299 293 285 267 268 264 283 298 289 277 268 264 263 255 252 213 197 195 204 250 286 221 252 283
339 333 320 308 313 315 312 307 303 302 299 295 289 283 282 283 285 261 262 261 285 287 272 271 264 257 258 260 248 203 189 185 191 235 215 228 253 282
331 330 335 338 336 335 332 330 326 320 318 318 314 302 291 291 276 262 265 269 285 280 266 268 273 246 234 239 225 219 215 212 210 209 228 246 273 273
302 315 325 332 331 332 335 335 335 335 333 330 322 321 307 286 284 285 275 282 279 271 265 272 255 238 233 240 233 228 222 222 222 226 232 244 258 250
298 307 318 322 323 326 327 327 333 336 335 340 341 330 326 312 294 287 277 258 262 255 261 240 250 237 237 228 225 221 234 228 230 238 240 253 243 260
Wind_Speed_850mb
21 21 21 20 15 25 23 22 25 31 34 24 27 30 35 39 41 54 56 65 60 51 40 41 42 47 50 48 37 38 36 32 31 28 25 26 25 23
20 17 21 19 17 27 25 22 25 30 42 40 40 37 42 51 48 52 61 65 58 45 45 43 48 46 48 49 35 37 36 34 32 31 28 27 26 24
23 27 31 29 29 27 25 30 31 34 41 49 50 51 46 47 58 51 62 67 73 54 60 46 49 52 54 42 37 35 37 36 32 32 32 28 28 26
27 26 28 29 27 29 27 31 39 35 42 55 57 49 54 52 56 58 57 70 62 52 63 52 51 52 58 52 39 32 34 35 32 33 33 32 31 30
36 34 34 34 36 36 36 40 42 45 47 52 62 55 61 60 55 62 58 36 64 65 56 52 48 55 58 56 51 34 35 34 32 31 32 33 32 32
46 43 43 44 45 44 44 43 42 44 47 52 56 55 58 67 70 66 73 72 53 38 64 58 57 59 55 52 50 38 42 33 30 29 30 31 30 27
48 49 49 51 50 48 50 51 47 50 59 68 73 71 78 78 77 76 72 73 64 43 50 60 60 55 54 46 51 31 30 29 29 26 25 27 25 25
55 53 52 50 52 57 60 60 52 54 62 66 71 76 85 83 83 77 77 66 65 65 63 68 63 45 38 46 50 37 29 25 25 21 21 23 24 24
55 52 50 51 50 58 62 61 57 59 61 67 73 83 86 83 78 81 73 61 65 72 73 63 50 40 36 42 40 43 40 31 17 18 18 20 20 19
72 76 77 77 76 75 77 78 79 82 85 83 78 77 78 77 74 73 71 70 56 58 61 62 46 42 33 41 39 40 38 22 14 14 18 18 20 22
87 89 89 88 84 79 77 78 75 72 65 60 57 58 63 67 68 71 75 62 49 51 55 41 40 32 30 33 29 25 25 17 12 13 16 18 22 28
80 75 67 61 56 50 53 56 62 59 55 57 59 64 67 71 65 60 65 59 38 42 39 33 30 25 22 20 28 21 10 6 9 9 14 18 22 27
64 64 49 54 56 58 63 74 76 67 61 61 69 76 77 73 53 54 56 48 49 32 37 32 29 27 24 25 16 8 3 11 7 10 15 18 19 28
64 59 54 57 59 61 63 63 65 62 63 65 72 76 67 56 51 55 50 48 33 31 30 31 27 25 20 17 7 11 14 20 11 9 11 19 22 21
35 44 46 50 49 54 63 69 70 69 68 66 63 63 53 50 51 53 47 42 26 33 31 24 24 25 19 14 15 19 16 9 7 12 12 18 22 22
42 38 39 38 40 45 40 37 38 44 46 51 50 49 53 52 44 49 52 35 28 32 30 24 25 25 18 13 15 15 12 11 11 24 20 19 27 21
41 41 39 36 35 38 37 33 35 36 40 42 47 52 53 46 40 46 37 28 26 30 31 25 25 22 15 15 14 11 13 9 21 25 21 12 14 29
32 33 27 28 29 33 32 32 30 34 37 38 43 46 48 48 38 45 43 32 27 28 30 26 26 22 19 18 9 14 17 15 20 24 20 14 21 26
17 14 21 29 31 30 36 40 40 37 39 37 35 40 45 44 35 43 48 44 35 37 28 29 29 24 25 20 13 16 21 19 21 18 19 16 23 27
23 21 19 25 28 31 34 37 40 41 39 40 42 44 42 45 44 46 54 42 37 36 31 34 32 25 25 21 18 13 30 27 22 14 24 25 23 26
16 20 24 25 27 30 33 36 36 36 36 38 39 40 38 41 44 46 52 38 39 31 33 35 26 23 24 25 22 23 23 36 31 29 26 22 19 22
15 17 19 22 25 27 31 35 35 36 35 37 38 34 29 30 30 24 32 43 37 32 32 29 28 29 33 28 25 24 22 23 40 39 34 26 19 12
20 20 22 22 23 24 25 27 31 31 33 30 32 34 29 27 24 24 24 31 32 26 25 29 34 31 31 28 30 31 27 20 18 32 36 29 19 22
Wind_Direction_850mb
252 252 257 252 228 267 270 272 281 292 299 293 294 301 307 310 302 307 313 336 339 335 333 332 331 331 320 312 302 289 288 293 287 289 287 282 291 275
259 259 264 252 215 256 291 284 277 283 289 304 310 301 294 303 318 313 316 328 336 338 332 320 314 317 326 319 302 288 284 286 284 284 289 284 285 277
259 230 255 266 246 225 242 262 272 278 282 290 289 308 317 316 315 315 314 320 323 331 333 311 304 313 329 321 308 294 283 284 282 278 283 289 281 281
281 275 269 277 270 269 270 266 262 278 289 294 305 309 302 317 326 318 313 316 321 319 324 308 298 312 327 329 311 298 289 287 278 274 284 283 285 281
251 261 268 273 275 270 265 262 263 266 271 279 291 304 314 314 315 307 313 309 313 323 313 318 317 322 327 334 322 301 285 288 278 271 280 282 286 278
234 243 252 258 266 272 275 278 278 288 293 293 297 299 294 293 300 300 302 310 317 308 307 306 309 316 317 321 317 306 286 286 279 273 278 280 284 274
243 247 250 253 259 266 271 274 273 273 277 285 290 297 301 305 306 313 311 315 319 311 299 308 310 314 311 320 322 312 285 283 278 273 274 282 284 278
258 258 256 258 257 261 265 273 279 280 283 288 292 293 298 301 305 306 310 311 311 316 317 316 315 319 315 316 320 311 301 278 267 270 275 280 286 287
257 263 265 264 267 273 278 280 280 281 280 282 283 287 294 299 302 304 305 304 310 320 320 317 321 325 313 322 324 312 293 291 268 264 277 284 291 296
257 256 257 261 264 265 266 267 267 270 275 280 284 287 290 296 297 298 297 297 306 320 310 308 324 321 318 332 319 301 299 279 253 264 286 293 303 307
257 260 263 265 269 273 275 275 278 282 286 289 292 289 290 291 292 296 296 303 300 297 302 310 322 317 332 337 335 320 301 270 255 270 295 312 322 323
262 263 265 270 275 279 279 278 277 284 291 295 294 295 298 301 302 297 302 308 317 305 308 307 311 318 328 337 334 314 315 285 260 280 315 330 335 335
265 267 267 265 268 272 274 271 272 283 283 288 291 298 304 306 303 296 300 305 312 302 301 300 296 311 321 321 334 318 273 331 263 302 332 323 324 330
260 255 254 258 265 269 272 277 280 277 279 286 291 296 303 306 297 292 298 301 297 299 297 290 280 305 311 323 268 292 279 311 246 280 318 326 321 318
265 263 270 278 284 284 277 272 278 282 283 286 288 294 299 296 296 295 298 303 301 310 306 294 278 292 301 296 259 251 262 233 214 265 293 311 313 307
282 286 283 290 299 296 294 291 288 286 283 284 288 296 296 294 295 289 300 296 292 306 306 292 278 283 288 272 276 263 179 174 229 215 254 270 308 277
292 296 302 308 310 299 297 293 288 285 285 288 288 293 292 294 293 292 301 281 280 305 305 291 277 282 285 269 280 259 186 216 218 245 240 271 262 250
296 300 300 284 284 286 289 284 278 280 285 290 291 295 294 296 292 280 287 277 279 303 298 285 275 274 279 266 265 212 190 207 249 231 260 249 258 264
328 305 291 291 294 298 296 294 291 292 290 289 288 293 299 293 285 267 268 264 283 298 289 277 268 264 263 255 252 213 197 195 204 250 286 221 252 283
339 333 320 308 313 315 312 307 303 302 299 295 289 283 282 283 285 261 262 261 285 287 272 271 264 257 258 260 248 203 189 185 191 235 215 228 253 282
331 330 335 338 336 335 332 330 326 320 318 318 314 302 291 291 276 262 265 269 285 280 266 268 273 246 234 239 225 219 215 212 210 209 228 246 273 273
302 315 325 332 331 332 335 335 335 335 333 330 322 321 307 286 284 285 275 282 279 271 265 272 255 238 233 240 233 228 222 222 222 226 232 244 258 250
298 307 318 322 323 326 327 327 333 336 335 340 341 330 326 312 294 287 277 258 262 255 261 240 250 237 237 228 225 221 234 228 230 238 240 253 243 260